• In Italy
  • List of Countries
  • For 7 days
  • Water Temperature
  • Satellite Maps
  • Weather Map
  • Weather Widgets
  • user-avatar
    Login

    Hourly Weather Exeter

    Today, 19 September, Wednesday

    Time Temperature Precipitation Wind Pressure Humidity
    00:00 +15°C° 0 mm 6 mps 750 mmHg 95%
    01:00 +15°C° 0 mm 6 mps 750 mmHg 95%
    02:00 +15°C° 0 mm 6 mps 750 mmHg 95%
    03:00 +15°C° 0 mm 7 mps 750 mmHg 95%
    04:00 +15°C° 0 mm 7 mps 750 mmHg 94%
    05:00 +15°C° 0 mm 8 mps 750 mmHg 94%
    06:00 +15°C° 0 mm 8 mps 749 mmHg 95%
    07:00 +16°C° 0 mm 9 mps 750 mmHg 91%
    08:00 +17°C° 0 mm 10 mps 750 mmHg 87%
    09:00 +18°C° 0 mm 12 mps 750 mmHg 83%
    10:00 +18°C° 0.1 mm 12 mps 750 mmHg 81%
    11:00 +19°C° 0.1 mm 12 mps 750 mmHg 78%
    12:00 +19°C° 0.1 mm 12 mps 750 mmHg 75%
    13:00 +19°C° 0.1 mm 11 mps 751 mmHg 78%
    14:00 +18°C° 0.1 mm 10 mps 751 mmHg 80%
    15:00 +17°C° 0.1 mm 9 mps 751 mmHg 83%
    16:00 +16°C° 0 mm 8 mps 752 mmHg 83%
    17:00 +16°C° 0 mm 7 mps 752 mmHg 82%
    18:00 +15°C° 0 mm 6 mps 752 mmHg 82%
    19:00 +14°C° 0 mm 5 mps 753 mmHg 83%
    20:00 +14°C° 0 mm 5 mps 753 mmHg 85%
    21:00 +13°C° 0 mm 4 mps 753 mmHg 86%
    22:00 +14°C° 0.3 mm 5 mps 753 mmHg 89%
    23:00 +14°C° 0.3 mm 6 mps 753 mmHg 91%

    Tomorrow, 20 September, Thursday

    Time Temperature Precipitation Wind Pressure Humidity
    00:00 +15°C° 0.3 mm 7 mps 752 mmHg 94%
    01:00 +15°C° 0.3 mm 7 mps 752 mmHg 94%
    02:00 +16°C° 0.3 mm 8 mps 751 mmHg 94%
    03:00 +16°C° 0.3 mm 8 mps 751 mmHg 94%
    04:00 +16°C° 0.3 mm 8 mps 751 mmHg 94%
    05:00 +16°C° 0.3 mm 8 mps 751 mmHg 94%
    06:00 +16°C° 0.3 mm 8 mps 750 mmHg 94%
    07:00 +16°C° 1.5 mm 8 mps 750 mmHg 94%
    08:00 +16°C° 1.5 mm 9 mps 750 mmHg 94%
    09:00 +16°C° 1.5 mm 9 mps 750 mmHg 94%
    10:00 +16°C° 0.6 mm 9 mps 749 mmHg 93%
    11:00 +17°C° 0.6 mm 10 mps 749 mmHg 92%
    12:00 +17°C° 0.6 mm 10 mps 748 mmHg 92%
    13:00 +17°C° 0.1 mm 11 mps 748 mmHg 91%
    14:00 +17°C° 0.1 mm 11 mps 747 mmHg 90%
    15:00 +17°C° 0.1 mm 12 mps 746 mmHg 89%
    16:00 +17°C° 1.4 mm 12 mps 745 mmHg 90%
    17:00 +17°C° 1.4 mm 13 mps 744 mmHg 91%
    18:00 +17°C° 1.4 mm 13 mps 743 mmHg 93%
    19:00 +17°C° 3.4 mm 13 mps 743 mmHg 93%
    20:00 +17°C° 3.4 mm 13 mps 743 mmHg 93%
    21:00 +17°C° 3.4 mm 13 mps 743 mmHg 93%
    22:00 +14°C° 0.6 mm 13 mps 743 mmHg 90%
    23:00 +10°C° 0.6 mm 12 mps 744 mmHg 87%

    Day after tomorrow, 21 September, Friday

    Time Temperature Precipitation Wind Pressure Humidity
    00:00 +8°C° 0.6 mm 11 mps 745 mmHg 84%
    01:00 +8°C° 0 mm 10 mps 746 mmHg 82%
    02:00 +8°C° 0 mm 9 mps 747 mmHg 81%
    03:00 +7°C° 0 mm 8 mps 748 mmHg 79%
    04:00 +9°C° 0 mm 8 mps 748 mmHg 78%
    05:00 +9°C° 0 mm 8 mps 749 mmHg 76%
    06:00 +9°C° 0 mm 8 mps 749 mmHg 75%
    07:00 +10°C° 0 mm 9 mps 750 mmHg 72%
    08:00 +11°C° 0 mm 10 mps 751 mmHg 69%
    09:00 +12°C° 0 mm 10 mps 751 mmHg 65%
    10:00 +12°C° 0.1 mm 10 mps 752 mmHg 65%
    11:00 +13°C° 0.1 mm 10 mps 753 mmHg 64%
    12:00 +13°C° 0.1 mm 10 mps 753 mmHg 63%
    13:00 +13°C° 0.2 mm 10 mps 754 mmHg 64%
    14:00 +13°C° 0.2 mm 10 mps 754 mmHg 65%
    15:00 +13°C° 0.2 mm 9 mps 754 mmHg 66%
    16:00 +12°C° 0 mm 8 mps 754 mmHg 69%
    17:00 +11°C° 0 mm 8 mps 754 mmHg 71%
    18:00 +10°C° 0 mm 7 mps 755 mmHg 74%
    19:00 +10°C° 0 mm 6 mps 755 mmHg 75%
    20:00 +9°C° 0 mm 6 mps 756 mmHg 77%
    21:00 +9°C° 0 mm 6 mps 756 mmHg 78%
    22:00 +9°C° 0 mm 6 mps 757 mmHg 80%
    23:00 +9°C° 0 mm 5 mps 757 mmHg 81%

    22 September, Saturday

    Time Temperature Precipitation Wind Pressure Humidity
    00:00 +8°C° 0 mm 5 mps 757 mmHg 82%
    01:00 +8°C° 0 mm 5 mps 757 mmHg 83%
    02:00 +8°C° 0 mm 5 mps 757 mmHg 84%
    03:00 +8°C° 0 mm 4 mps 758 mmHg 85%
    04:00 +8°C° 0 mm 4 mps 758 mmHg 86%
    05:00 +8°C° 0 mm 4 mps 758 mmHg 86%
    06:00 +9°C° 0 mm 3 mps 758 mmHg 86%
    07:00 +10°C° 0 mm 3 mps 758 mmHg 81%
    08:00 +11°C° 0 mm 3 mps 759 mmHg 77%
    09:00 +13°C° 0 mm 3 mps 759 mmHg 72%
    10:00 +13°C° 0 mm 3 mps 759 mmHg 69%
    11:00 +14°C° 0 mm 3 mps 759 mmHg 66%
    12:00 +16°C° 0 mm 3 mps 759 mmHg 64%
    13:00 +14°C° 0.1 mm 3 mps 758 mmHg 66%
    14:00 +14°C° 0.1 mm 3 mps 758 mmHg 69%
    15:00 +15°C° 0.1 mm 2 mps 757 mmHg 72%
    16:00 +13°C° 0.5 mm 3 mps 757 mmHg 78%
    17:00 +12°C° 0.5 mm 3 mps 756 mmHg 83%
    18:00 +11°C° 0.5 mm 3 mps 755 mmHg 89%
    19:00 +10°C° 2 mm 5 mps 754 mmHg 91%
    20:00 +9°C° 2 mm 6 mps 753 mmHg 92%
    21:00 +9°C° 2 mm 8 mps 752 mmHg 93%
    22:00 +10°C° 1.7 mm 9 mps 750 mmHg 93%
    23:00 +9°C° 1.7 mm 11 mps 747 mmHg 93%

    23 September, Sunday

    Time Temperature Precipitation Wind Pressure Humidity
    00:00 +10°C° 1.7 mm 12 mps 745 mmHg 93%
    01:00 +12°C° 2.2 mm 12 mps 742 mmHg 94%
    02:00 +14°C° 2.2 mm 13 mps 740 mmHg 95%
    03:00 +17°C° 2.2 mm 13 mps 737 mmHg 96%
    04:00 +15°C° 1.1 mm 13 mps 734 mmHg 92%
    05:00 +14°C° 1.1 mm 13 mps 732 mmHg 89%
    06:00 +13°C° 1.1 mm 13 mps 729 mmHg 85%
    07:00 +13°C° 0.4 mm 12 mps 728 mmHg 87%
    08:00 +13°C° 0.4 mm 11 mps 727 mmHg 88%
    09:00 +13°C° 0.4 mm 10 mps 726 mmHg 90%
    10:00 +12°C° 0.4 mm 13 mps 727 mmHg 88%
    11:00 +11°C° 0.4 mm 15 mps 729 mmHg 86%
    12:00 +10°C° 0.4 mm 17 mps 730 mmHg 84%
    13:00 +10°C° 0.2 mm 18 mps 733 mmHg 81%
    14:00 +8°C° 0.2 mm 19 mps 735 mmHg 79%
    15:00 +8°C° 0.2 mm 20 mps 738 mmHg 76%
    16:00 +8°C° 0.3 mm 19 mps 741 mmHg 74%
    17:00 +8°C° 0.3 mm 19 mps 745 mmHg 72%
    18:00 +9°C° 0.3 mm 18 mps 748 mmHg 71%
    19:00 +7°C° 0 mm 16 mps 751 mmHg 68%
    20:00 +8°C° 0 mm 15 mps 753 mmHg 65%
    21:00 +8°C° 0 mm 13 mps 756 mmHg 62%
    22:00 +8°C° 0 mm 12 mps 757 mmHg 62%
    23:00 +8°C° 0 mm 11 mps 758 mmHg 63%

    24 September, Monday

    Time Temperature Precipitation Wind Pressure Humidity
    00:00 +7°C° 0 mm 10 mps 759 mmHg 64%
    01:00 +7°C° 0 mm 9 mps 760 mmHg 66%
    02:00 +7°C° 0 mm 8 mps 761 mmHg 69%
    03:00 +6°C° 0 mm 8 mps 762 mmHg 72%
    04:00 +6°C° 0 mm 7 mps 762 mmHg 73%
    05:00 +6°C° 0 mm 7 mps 763 mmHg 74%
    06:00 +6°C° 0 mm 7 mps 764 mmHg 75%
    07:00 +8°C° 0 mm 7 mps 765 mmHg 72%
    08:00 +8°C° 0 mm 7 mps 765 mmHg 68%
    09:00 +9°C° 0 mm 7 mps 766 mmHg 65%
    10:00 +10°C° 0.1 mm 7 mps 766 mmHg 65%
    11:00 +11°C° 0.1 mm 7 mps 767 mmHg 66%
    12:00 +11°C° 0.1 mm 7 mps 767 mmHg 66%
    13:00 +11°C° 0.1 mm 7 mps 767 mmHg 66%
    14:00 +11°C° 0.1 mm 7 mps 767 mmHg 65%
    15:00 +11°C° 0.1 mm 7 mps 768 mmHg 65%
    16:00 +10°C° 0 mm 6 mps 768 mmHg 69%
    17:00 +9°C° 0 mm 6 mps 768 mmHg 73%
    18:00 +8°C° 0 mm 5 mps 768 mmHg 76%
    19:00 +8°C° 0 mm 5 mps 769 mmHg 78%
    20:00 +7°C° 0 mm 4 mps 769 mmHg 79%
    21:00 +6°C° 0 mm 4 mps 770 mmHg 80%
    22:00 +7°C° 0 mm 3 mps 770 mmHg 81%
    23:00 +7°C° 0 mm 3 mps 770 mmHg 82%
    Show more